Flag for U.S.A. Weather past 2 weeks in Baton Rouge, Louisiana, U.S.A.

Now
79 °F

Partly sunny.


Feels Like: 81 °F
Forecast: 69 / 85 °F
Wind: 5 mph from Northeast

Location: Baton Rouge Metropolitan - Ryan Field

Current Time: May 22, 2015 at 7:43:05 PM

Latest Report: May 22, 2015 at 6:53 PM


Visibility: 10 mi

Pressure: 30.13 "Hg

Humidity: 69%

Dew point: 68 °F

Location of Baton RougeLocation

Historic Weather in Baton Rouge — Graph

°F

Baton Rouge temperature yesterday

Maximum temperature yesterday: 86 °F (at 12:00 PM)
Minimum temperature yesterday: 67 °F (at 11:53 PM)
Average temperature yesterday: 75 °F

Past Weeks' High & Low Weather Summary

 TemperatureHumidityPressure
High89 °F (May 17, 2:53 PM)97% (May 8, 5:53 AM)30.20 "Hg (May 8, 5:53 AM)
Low64 °F (May 22, 3:53 AM)48% (May 8, 3:53 PM)29.96 "Hg (May 20, 6:53 PM)
Average76 °F82%30.06 "Hg
* Reported May 7 5:53 PM — May 22 5:53 PM, Baton Rouge, Weather by CustomWeather, © 2015

Note: Actual official high and low records may vary slightly from our data, if they occured in-between our weather recording intervals... More about our weather records

Advertising

Baton Rouge weather history for previous 24 hours

 ConditionsComfort  
Time TempWeatherWind HumidityBarometerVisibility
5:53 PM
Fri, May 22
81 °FPartly sunny.7 mph65%30.12 "Hg10 mi
4:53 PM82 °FPartly sunny.8 mph60%30.13 "Hg10 mi
3:53 PM81 °FPartly sunny.7 mph65%30.13 "Hg10 mi
2:53 PM81 °FPartly sunny.5 mph65%30.15 "Hg10 mi
1:53 PM80 °FSunny.No wind62%30.15 "Hg10 mi
12:53 PM78 °FSunny.3 mph64%30.16 "Hg10 mi
11:53 AM76 °FSunny.3 mph64%30.16 "Hg10 mi
10:53 AM73 °FSunny.7 mph69%30.17 "Hg10 mi
10:01 AM70 °FScattered clouds.8 mph73%30.18 "Hg10 mi
8:53 AM66 °FMostly cloudy.8 mph81%30.19 "Hg10 mi
7:53 AM65 °FLow clouds.9 mph85%30.18 "Hg10 mi
6:53 AM64 °FLow clouds.7 mph87%30.16 "Hg10 mi
5:53 AM64 °FLow clouds.5 mph90%30.15 "Hg10 mi
4:53 AM64 °FLow clouds.6 mph90%30.13 "Hg10 mi
3:53 AM64 °FOvercast.No wind90%30.11 "Hg10 mi
2:53 AM65 °FLow clouds.6 mph87%30.09 "Hg10 mi
1:53 AM65 °FOvercast.9 mph87%30.10 "Hg10 mi
12:53 AM66 °FOvercast.7 mph87%30.10 "Hg10 mi
11:53 PM
Thu, May 21
67 °FLow clouds.9 mph93%30.10 "Hg8 mi
10:53 PM70 °FLow clouds.9 mph90%30.10 "Hg8 mi
9:53 PM71 °FPassing clouds.8 mph87%30.08 "Hg10 mi
8:53 PM71 °FSunny.3 mph87%30.05 "Hg10 mi
7:53 PM72 °FSunny.5 mph84%30.06 "Hg10 mi
Weather by CustomWeather, © 2015

See weather overviewHow to use our weather pages